Weather History for Monett, MO

Change the Weather History Date:

Thursday, October 4, 2012

  Actual Average (KJLN) Record (KJLN)
Temperature  
Mean Temperature 66 °F 63 °F  
Max Temperature 78 °F 75 °F 91 °F (1963)
Min Temperature 55 °F 52 °F 34 °F (1968)
Degree Days  
Heating Degree Days 0 4  
Month to date heating degree days 16  
Since 1 July heating degree days 58  
Cooling Degree Days 2 3  
Month to date cooling degree days 12  
Year to date cooling degree days 1654  
Growing Degree Days 16 (Base 50)    
Moisture  
Dew Point 54 °F    
Average Humidity 67    
Maximum Humidity 88    
Minimum Humidity 44    
Precipitation  
Precipitation 0.00 in 0.14 in 1.18 in (1955)
Month to date precipitation 0.54  
Year to date precipitation 36.46  
Sea Level Pressure  
Sea Level Pressure 30.13 in    
Wind  
Wind Speed 9 mph (South)    
Max Wind Speed 16 mph    
Max Gust Speed 23 mph    
Visibility 10 miles    
Events      
T = Trace of Precipitation, MM = Missing Value Source: NWS Daily Summary

Daily Weather History Graph

Daily Weather History Graph

Search for Another Location

Airport:

Trip Planner

Search our weather history database for the weather conditions in past years. The results will help you decide how hot, cold, wet, or windy it might be!

Date:

Astronomy

Oct. 04, 2012 Rise Set
Actual Time 7:14 AM CDT 6:54 PM CDT
Civil Twilight 6:48 AM CDT 7:20 PM CDT
Nautical Twilight 6:18 AM CDT 7:50 PM CDT
Astronomical Twilight 5:48 AM CDT 8:20 PM CDT
Moon 9:37 PM CDT (10/4) 11:25 AM CDT (10/4)
Length of Visible Light 12h 31m
Length of Day
11h 39m
Waning Gibbous, 82% of the Moon is Illuminated
Oct 4
Waning Gibbous
Oct 8
Last Quarter
Oct 15
New
Oct 21
First Quarter
Oct 29
Full

Hourly Weather History & Observations

Time (CDT) Temp. Dew Point Humidity Pressure Visibility Wind Dir Wind Speed Gust Speed Precip Events Conditions
12:15 AM 60.8 °F 53.6 °F 77% 30.04 in 10.0 mi SSE 9.2 mph - N/A   Clear
12:35 AM 60.8 °F 53.6 °F 77% 30.04 in 10.0 mi SSE 9.2 mph - N/A   Clear
12:55 AM 62.6 °F 53.6 °F 72% 30.04 in 10.0 mi South 8.1 mph - N/A   Clear
1:15 AM 60.8 °F 53.6 °F 77% 30.05 in 10.0 mi South 8.1 mph - N/A   Clear
1:35 AM 60.8 °F 51.8 °F 72% 30.07 in 10.0 mi SSE 5.8 mph - N/A   Clear
1:55 AM 60.8 °F 51.8 °F 72% 30.07 in 10.0 mi SSE 6.9 mph - N/A   Clear
2:15 AM 60.8 °F 51.8 °F 72% 30.06 in 10.0 mi SSE 5.8 mph - N/A   Clear
2:35 AM 60.8 °F 51.8 °F 72% 30.07 in 10.0 mi SSE 5.8 mph - N/A   Clear
2:55 AM 60.8 °F 51.8 °F 72% 30.07 in 10.0 mi SSE 8.1 mph - N/A   Clear
3:15 AM 60.8 °F 51.8 °F 72% 30.07 in 10.0 mi SSE 9.2 mph - N/A   Clear
3:35 AM 60.8 °F 51.8 °F 72% 30.08 in 10.0 mi SSE 6.9 mph - N/A   Clear
3:55 AM 60.8 °F 51.8 °F 72% 30.08 in 10.0 mi SSE 5.8 mph - N/A   Clear
4:15 AM 59.0 °F 51.8 °F 77% 30.09 in 10.0 mi SSE 5.8 mph - N/A   Clear
4:35 AM 57.2 °F 51.8 °F 82% 30.09 in 10.0 mi SE 6.9 mph - N/A   Clear
4:55 AM 57.2 °F 51.8 °F 82% 30.10 in 10.0 mi SE 4.6 mph - N/A   Clear
5:15 AM 57.2 °F 51.8 °F 82% 30.11 in 10.0 mi SE 6.9 mph - N/A   Clear
5:35 AM 55.4 °F 51.8 °F 88% 30.12 in 10.0 mi SE 6.9 mph - N/A   Clear
5:55 AM 55.4 °F 51.8 °F 88% 30.12 in 10.0 mi SSE 8.1 mph - N/A   Clear
6:15 AM 55.4 °F 51.8 °F 88% 30.13 in 10.0 mi SSE 6.9 mph - N/A   Clear
6:35 AM 57.2 °F 51.8 °F 82% 30.14 in 10.0 mi SSE 5.8 mph - N/A   Clear
6:55 AM 57.2 °F 51.8 °F 82% 30.14 in 10.0 mi SSE 6.9 mph - N/A   Clear
7:15 AM 57.2 °F 51.8 °F 82% 30.15 in 10.0 mi SSE 6.9 mph - N/A   Clear
7:35 AM 59.0 °F 53.6 °F 82% 30.15 in 10.0 mi SSE 6.9 mph - N/A   Clear
7:55 AM 59.0 °F 53.6 °F 82% 30.15 in 10.0 mi SSE 6.9 mph - N/A   Clear
8:15 AM 60.8 °F 53.6 °F 77% 30.15 in 10.0 mi SSE 8.1 mph - N/A   Clear
8:35 AM 62.6 °F 53.6 °F 72% 30.16 in 10.0 mi South 8.1 mph - N/A   Clear
8:55 AM 64.4 °F 55.4 °F 73% 30.16 in 10.0 mi South 10.4 mph - N/A   Clear
9:15 AM 68.0 °F 55.4 °F 64% 30.16 in 10.0 mi South 13.8 mph - N/A   Clear
9:35 AM 69.8 °F 55.4 °F 60% 30.15 in 10.0 mi South 15.0 mph 20.7 mph N/A   Clear
9:55 AM 69.8 °F 53.6 °F 56% 30.16 in 10.0 mi SSW 13.8 mph 23.0 mph N/A   Clear
10:15 AM 71.6 °F 55.4 °F 57% 30.16 in 10.0 mi SSW 15.0 mph - N/A   Clear
10:35 AM 71.6 °F 55.4 °F 57% 30.16 in 10.0 mi SSW 13.8 mph 20.7 mph N/A   Clear
10:55 AM 73.4 °F 55.4 °F 53% 30.16 in 10.0 mi SSW 13.8 mph 20.7 mph N/A   Clear
11:15 AM 73.4 °F 55.4 °F 53% 30.16 in 10.0 mi SSW 16.1 mph 23.0 mph N/A   Clear
11:35 AM 75.2 °F 55.4 °F 50% 30.16 in 10.0 mi South 16.1 mph - N/A   Clear
11:55 AM 77.0 °F 55.4 °F 47% 30.16 in 10.0 mi SW 13.8 mph - N/A   Clear
12:15 PM 77.0 °F 55.4 °F 47% 30.16 in 10.0 mi SSW 13.8 mph - N/A   Clear
12:35 PM 77.0 °F 55.4 °F 47% 30.16 in 10.0 mi SSW 11.5 mph 18.4 mph N/A   Clear
12:55 PM 77.0 °F 55.4 °F 47% 30.15 in 10.0 mi SW 13.8 mph 20.7 mph N/A   Clear
1:15 PM 78.8 °F 55.4 °F 44% 30.15 in 10.0 mi SW 10.4 mph 18.4 mph N/A   Clear
1:35 PM 78.8 °F 55.4 °F 44% 30.14 in 10.0 mi WSW 10.4 mph 19.6 mph N/A   Clear
1:55 PM 78.8 °F 55.4 °F 44% 30.13 in 10.0 mi WSW 10.4 mph 16.1 mph N/A   Clear
2:15 PM 78.8 °F 55.4 °F 44% 30.13 in 10.0 mi West 6.9 mph 16.1 mph N/A   Clear
2:35 PM 78.8 °F 57.2 °F 47% 30.12 in 10.0 mi WSW 11.5 mph 16.1 mph N/A   Scattered Clouds
2:55 PM 78.8 °F 57.2 °F 47% 30.12 in 10.0 mi SW 11.5 mph - N/A   Clear
3:15 PM 78.8 °F 57.2 °F 47% 30.12 in 10.0 mi West 8.1 mph - N/A   Clear
3:35 PM 78.8 °F 57.2 °F 47% 30.11 in 10.0 mi West 6.9 mph - N/A   Scattered Clouds
4:15 PM 78.8 °F 59.0 °F 51% 30.11 in 10.0 mi West 10.4 mph - N/A   Clear
4:35 PM 77.0 °F 59.0 °F 54% 30.11 in 10.0 mi NW 11.5 mph 17.3 mph N/A   Scattered Clouds
4:55 PM 73.4 °F 59.0 °F 61% 30.12 in 10.0 mi NNW 12.7 mph - N/A   Mostly Cloudy
5:15 PM 73.4 °F 59.0 °F 61% 30.12 in 10.0 mi NNW 16.1 mph - N/A   Mostly Cloudy
5:35 PM 69.8 °F 59.0 °F 68% 30.12 in 10.0 mi North 10.4 mph 17.3 mph N/A   Scattered Clouds
5:55 PM 69.8 °F 59.0 °F 68% 30.13 in 10.0 mi NNW 10.4 mph - N/A   Scattered Clouds
6:15 PM 68.0 °F 57.2 °F 68% 30.13 in 10.0 mi North 10.4 mph - N/A   Mostly Cloudy
6:35 PM 68.0 °F 55.4 °F 64% 30.13 in 10.0 mi North 10.4 mph - N/A   Scattered Clouds
6:55 PM 64.4 °F 55.4 °F 73% 30.14 in 10.0 mi North 11.5 mph 17.3 mph N/A   Scattered Clouds
7:15 PM 62.6 °F 53.6 °F 72% 30.14 in 10.0 mi North 11.5 mph 16.1 mph N/A   Scattered Clouds
7:35 PM 60.8 °F 51.8 °F 72% 30.14 in 10.0 mi North 9.2 mph - N/A   Clear
8:15 PM 60.8 °F 51.8 °F 72% 30.15 in 10.0 mi North 6.9 mph - N/A   Scattered Clouds
8:35 PM 60.8 °F 51.8 °F 72% 30.16 in 10.0 mi NNE 4.6 mph - N/A   Mostly Cloudy
9:15 PM 60.8 °F 51.8 °F 72% 30.17 in 10.0 mi North 5.8 mph - N/A   Overcast
9:35 PM 60.8 °F 51.8 °F 72% 30.17 in 10.0 mi North 5.8 mph - N/A   Overcast
9:55 PM 60.8 °F 51.8 °F 72% 30.17 in 10.0 mi NNE 4.6 mph - N/A   Overcast
10:15 PM 59.0 °F 51.8 °F 77% 30.18 in 10.0 mi North 5.8 mph - N/A   Overcast
10:35 PM 59.0 °F 50.0 °F 72% 30.17 in 10.0 mi NNE 4.6 mph - N/A   Overcast
10:55 PM 59.0 °F 50.0 °F 72% 30.16 in 10.0 mi NNE 5.8 mph - N/A   Overcast
11:15 PM 59.0 °F 50.0 °F 72% 30.16 in 10.0 mi North 5.8 mph - N/A   Overcast
11:35 PM 59.0 °F 50.0 °F 72% 30.16 in 10.0 mi North 5.8 mph - N/A   Overcast
11:55 PM 57.2 °F 50.0 °F 77% 30.16 in 10.0 mi North 9.2 mph - N/A   Overcast